Time,TemperatureF,DewpointF,PressureIn,WindDirection,WindDirectionDegrees,WindSpeedMPH,WindSpeedGustMPH,Humidity,HourlyPrecipIn,Conditions,Clouds,dailyrainin,SoftwareType,DateUTC
2013-08-23 00:04:00,71.0,70.0,-100.00,West,261,1.0,2.0,96,0.00,,,-99.99,,2013-08-23 04:04:00,
2013-08-23 00:20:00,71.0,70.0,-100.00,SW,234,0.0,1.0,96,0.00,,,-99.99,,2013-08-23 04:20:00,
2013-08-23 00:24:00,71.0,70.0,-100.00,West,278,0.0,1.0,96,0.00,,,-99.99,,2013-08-23 04:24:00,
2013-08-23 00:43:00,71.0,69.0,-100.00,West,263,0.0,0.0,96,0.00,,,-99.99,,2013-08-23 04:43:00,
2013-08-23 00:54:00,71.0,70.0,-100.00,SW,234,0.0,1.0,96,0.00,,,-99.99,,2013-08-23 04:54:00,
2013-08-23 01:04:00,71.0,70.0,-100.00,SW,234,0.0,1.0,96,0.00,,,-99.99,,2013-08-23 05:04:00,
2013-08-23 01:13:00,71.0,70.0,-100.00,SW,234,0.0,1.0,96,0.00,,,-99.99,,2013-08-23 05:13:00,
2013-08-23 01:42:00,71.0,69.0,-100.00,NW,319,0.0,0.0,97,0.00,,,-99.99,,2013-08-23 05:42:00,
2013-08-23 01:53:00,71.0,70.0,-100.00,NW,304,0.0,1.0,96,0.00,,,-99.99,,2013-08-23 05:53:00,
2013-08-23 02:12:00,71.0,70.0,-100.00,WNW,301,1.0,2.0,97,0.00,,,-99.99,,2013-08-23 06:12:00,
2013-08-23 02:22:00,71.0,70.0,-100.00,WNW,301,1.0,2.0,97,0.00,,,-99.99,,2013-08-23 06:22:00,
2013-08-23 02:42:00,70.0,69.0,-100.00,West,264,2.0,3.0,97,0.00,,,-99.99,,2013-08-23 06:42:00,
2013-08-23 02:52:00,71.0,70.0,-100.00,West,267,1.0,2.0,96,0.00,,,-99.99,,2013-08-23 06:52:00,
2013-08-23 03:01:00,71.0,70.0,-100.00,West,267,1.0,2.0,96,0.00,,,-99.99,,2013-08-23 07:01:00,
2013-08-23 03:22:00,71.0,69.0,-100.00,West,277,2.0,3.0,97,0.00,,,-99.99,,2013-08-23 07:22:00,
2013-08-23 03:42:00,70.0,69.0,-100.00,WSW,244,0.0,1.0,97,0.00,,,-99.99,,2013-08-23 07:42:00,
2013-08-23 03:53:00,71.0,70.0,-100.00,NNW,336,1.0,2.0,96,0.00,,,-99.99,,2013-08-23 07:53:00,
2013-08-23 04:00:00,71.0,70.0,-100.00,NW,311,1.0,1.0,97,0.00,,,-99.99,,2013-08-23 08:00:00,
2013-08-23 04:02:00,71.0,70.0,-100.00,NNW,336,1.0,2.0,96,0.00,,,-99.99,,2013-08-23 08:02:00,
2013-08-23 04:22:00,71.0,70.0,-100.00,NW,309,1.0,3.0,97,0.00,,,-99.99,,2013-08-23 08:22:00,
2013-08-23 04:42:00,71.0,70.0,-100.00,NW,311,1.0,1.0,97,0.00,,,-99.99,,2013-08-23 08:42:00,
2013-08-23 04:52:00,71.0,70.0,-100.00,NW,311,1.0,1.0,97,0.00,,,-99.99,,2013-08-23 08:52:00,
2013-08-23 05:21:00,71.0,70.0,-100.00,NW,320,1.0,4.0,97,0.00,,,-99.99,,2013-08-23 09:21:00,
2013-08-23 05:43:00,71.0,69.0,-100.00,WNW,296,0.0,2.0,97,0.00,,,-99.99,,2013-08-23 09:43:00,
2013-08-23 05:53:00,70.0,69.0,-100.00,NNW,330,1.0,2.0,97,0.00,,,-99.99,,2013-08-23 09:53:00,
2013-08-23 06:13:00,70.0,69.0,-100.00,NW,316,1.0,3.0,97,0.00,,,-99.99,,2013-08-23 10:13:00,
2013-08-23 06:23:00,70.0,69.0,-100.00,NW,316,1.0,3.0,97,0.00,,,-99.99,,2013-08-23 10:23:00,
2013-08-23 06:42:00,70.0,69.0,-100.00,NNW,336,1.0,3.0,97,0.00,,,-99.99,,2013-08-23 10:42:00,
2013-08-23 06:53:00,70.0,69.0,-100.00,NNW,332,1.0,2.0,97,0.00,,,-99.99,,2013-08-23 10:53:00,
2013-08-23 07:02:00,70.0,69.0,-100.00,NNW,332,1.0,2.0,97,0.00,,,-99.99,,2013-08-23 11:02:00,
2013-08-23 07:22:00,70.0,69.0,-100.00,West,278,2.0,4.0,96,0.00,,,-99.99,,2013-08-23 11:22:00,
2013-08-23 07:33:00,70.0,69.0,-100.00,West,278,2.0,4.0,96,0.00,,,-99.99,,2013-08-23 11:33:00,
2013-08-23 07:42:00,70.0,69.0,-100.00,West,278,2.0,4.0,96,0.00,,,-99.99,,2013-08-23 11:42:00,
2013-08-23 07:53:00,70.0,69.0,-100.00,West,264,3.0,4.0,96,0.00,,,-99.99,,2013-08-23 11:53:00,
2013-08-23 08:01:00,70.0,69.0,-100.00,West,264,3.0,4.0,96,0.00,,,-99.99,,2013-08-23 12:01:00,
2013-08-23 08:22:00,70.0,69.0,-100.00,NW,323,1.0,2.0,96,0.00,,,-99.99,,2013-08-23 12:22:00,
2013-08-23 08:42:00,71.0,69.0,-100.00,NNW,340,0.0,2.0,96,0.00,,,-99.99,,2013-08-23 12:42:00,
2013-08-23 08:52:00,71.0,70.0,-100.00,West,267,2.0,4.0,96,0.00,,,-99.99,,2013-08-23 12:52:00,
2013-08-23 09:12:00,72.0,71.0,-100.00,NNW,328,0.0,1.0,95,0.00,,,-99.99,,2013-08-23 13:12:00,
2013-08-23 09:22:00,72.0,71.0,-100.00,NNW,328,0.0,1.0,95,0.00,,,-99.99,,2013-08-23 13:22:00,
2013-08-23 09:42:00,73.0,71.0,-100.00,WNW,285,2.0,3.0,93,0.00,,,-99.99,,2013-08-23 13:42:00,
2013-08-23 09:53:00,73.0,71.0,-100.00,WNW,285,2.0,3.0,93,0.00,,,-99.99,,2013-08-23 13:53:00,
2013-08-23 10:22:00,76.0,71.0,-100.00,WNW,285,2.0,4.0,84,0.00,,,-99.99,,2013-08-23 14:22:00,
2013-08-23 10:42:00,77.0,71.0,-100.00,NNW,330,2.0,4.0,80,0.00,,,-99.99,,2013-08-23 14:42:00,
2013-08-23 10:52:00,77.0,70.0,-100.00,NNW,332,4.0,6.0,80,0.00,,,-99.99,,2013-08-23 14:52:00,
2013-08-23 11:11:00,78.0,71.0,-100.00,NW,306,3.0,5.0,78,0.00,,,-99.99,,2013-08-23 15:11:00,
2013-08-23 11:22:00,78.0,71.0,-100.00,NW,306,3.0,5.0,78,0.00,,,-99.99,,2013-08-23 15:22:00,
2013-08-23 12:24:00,81.0,71.0,-100.00,NNW,335,2.0,4.0,69,0.00,,,-99.99,,2013-08-23 16:24:00,
2013-08-23 12:34:00,81.0,71.0,-100.00,NNW,335,2.0,4.0,69,0.00,,,-99.99,,2013-08-23 16:34:00,
2013-08-23 12:42:00,81.0,71.0,-100.00,NNW,335,2.0,4.0,69,0.00,,,-99.99,,2013-08-23 16:42:00,
2013-08-23 12:53:00,81.0,69.0,-100.00,North,354,1.0,3.0,67,0.00,,,-99.99,,2013-08-23 16:53:00,
2013-08-23 13:04:00,81.0,69.0,-100.00,North,354,1.0,3.0,67,0.00,,,-99.99,,2013-08-23 17:04:00,
2013-08-23 13:24:00,82.0,68.0,-100.00,North,3,3.0,6.0,63,0.00,,,-99.99,,2013-08-23 17:24:00,
2013-08-23 13:43:00,85.0,71.0,-100.00,North,354,2.0,4.0,63,0.00,,,-99.99,,2013-08-23 17:43:00,
2013-08-23 13:54:00,85.0,69.0,-100.00,NNW,336,4.0,7.0,59,0.00,,,-99.99,,2013-08-23 17:54:00,
2013-08-23 14:02:00,85.0,69.0,-100.00,NNW,336,4.0,7.0,59,0.00,,,-99.99,,2013-08-23 18:02:00,
2013-08-23 14:22:00,86.0,72.0,-100.00,NE,54,2.0,4.0,63,0.00,,,-99.99,,2013-08-23 18:22:00,
2013-08-23 14:42:00,85.0,68.0,-100.00,NNW,330,4.0,8.0,58,0.00,,,-99.99,,2013-08-23 18:42:00,
2013-08-23 14:52:00,85.0,68.0,-100.00,NNW,330,4.0,8.0,58,0.00,,,-99.99,,2013-08-23 18:52:00,
2013-08-23 15:12:00,84.0,69.0,-100.00,NW,304,3.0,7.0,60,0.00,,,-99.99,,2013-08-23 19:12:00,
2013-08-23 15:22:00,84.0,69.0,-100.00,NW,304,3.0,7.0,60,0.00,,,-99.99,,2013-08-23 19:22:00,
2013-08-23 15:52:00,84.0,72.0,-100.00,NE,55,2.0,4.0,66,0.00,,,-99.99,,2013-08-23 19:52:00,
2013-08-23 16:12:00,84.0,72.0,-100.00,ENE,65,4.0,6.0,67,0.00,,,-99.99,,2013-08-23 20:12:00,
2013-08-23 16:22:00,84.0,72.0,-100.00,ENE,65,4.0,6.0,67,0.00,,,-99.99,,2013-08-23 20:22:00,
2013-08-23 16:40:00,85.0,71.0,-100.00,North,352,4.0,6.0,61,0.00,,,-99.99,,2013-08-23 20:40:00,
2013-08-23 16:42:00,85.0,72.0,-100.00,NE,45,3.0,6.0,65,0.00,,,-99.99,,2013-08-23 20:42:00,
2013-08-23 16:52:00,85.0,71.0,-100.00,NE,55,3.0,5.0,64,0.00,,,-99.99,,2013-08-23 20:52:00,
2013-08-23 17:12:00,85.0,71.0,-100.00,North,352,4.0,6.0,61,0.00,,,-99.99,,2013-08-23 21:12:00,
2013-08-23 17:22:00,85.0,71.0,-100.00,North,352,4.0,6.0,61,0.00,,,-99.99,,2013-08-23 21:22:00,
2013-08-23 17:34:00,85.0,71.0,-100.00,North,352,4.0,6.0,61,0.00,,,-99.99,,2013-08-23 21:34:00,
2013-08-23 17:40:00,78.0,71.0,-100.00,East,85,8.0,13.0,81,0.00,,,-99.99,,2013-08-23 21:40:00,
2013-08-23 17:54:00,83.0,69.0,-100.00,ESE,106,3.0,5.0,63,0.00,,,-99.99,,2013-08-23 21:54:00,
2013-08-23 18:13:00,78.0,71.0,-100.00,East,85,8.0,13.0,81,0.00,,,-99.99,,2013-08-23 22:13:00,
2013-08-23 18:24:00,78.0,71.0,-100.00,East,85,8.0,13.0,81,0.00,,,-99.99,,2013-08-23 22:24:00,
2013-08-23 18:33:00,78.0,71.0,-100.00,East,85,8.0,13.0,81,0.00,,,-99.99,,2013-08-23 22:33:00,
2013-08-23 19:12:00,71.0,70.0,-100.00,East,89,3.0,5.0,96,0.00,,,-99.99,,2013-08-23 23:12:00,
2013-08-23 19:22:00,71.0,70.0,-100.00,East,89,3.0,5.0,96,0.00,,,-99.99,,2013-08-23 23:22:00,
2013-08-23 19:43:00,72.0,71.0,-100.00,NE,52,3.0,5.0,96,0.00,,,-99.99,,2013-08-23 23:43:00,
2013-08-23 19:54:00,71.0,69.0,-100.00,East,85,8.0,11.0,96,0.00,,,-99.99,,2013-08-23 23:54:00,
2013-08-23 20:02:00,71.0,69.0,-100.00,East,85,8.0,11.0,96,0.00,,,-99.99,,2013-08-24 00:02:00,
2013-08-23 20:22:00,69.0,68.0,-100.00,ENE,76,9.0,15.0,96,0.00,,,-99.99,,2013-08-24 00:22:00,
2013-08-23 20:43:00,68.0,67.0,-100.00,East,88,7.0,10.0,96,0.00,,,-99.99,,2013-08-24 00:43:00,
2013-08-23 20:53:00,67.0,66.0,-100.00,East,83,5.0,10.0,96,0.00,,,-99.99,,2013-08-24 00:53:00,
2013-08-23 21:02:00,67.0,66.0,-100.00,East,83,5.0,10.0,96,0.00,,,-99.99,,2013-08-24 01:02:00,
2013-08-23 21:22:00,67.0,65.0,-100.00,East,82,6.0,11.0,96,0.00,,,-99.99,,2013-08-24 01:22:00,
2013-08-23 21:42:00,67.0,65.0,-100.00,ENE,75,4.0,7.0,95,0.00,,,-99.99,,2013-08-24 01:42:00,
2013-08-23 21:53:00,67.0,65.0,-100.00,East,82,4.0,7.0,95,0.00,,,-99.99,,2013-08-24 01:53:00,
2013-08-23 22:12:00,67.0,65.0,-100.00,ENE,76,4.0,7.0,95,0.00,,,-99.99,,2013-08-24 02:12:00,
2013-08-23 22:22:00,67.0,65.0,-100.00,East,79,4.0,6.0,94,0.00,,,-99.99,,2013-08-24 02:22:00,
2013-08-23 22:32:00,67.0,65.0,-100.00,East,79,4.0,6.0,94,0.00,,,-99.99,,2013-08-24 02:32:00,
2013-08-23 22:42:00,67.0,65.0,-100.00,East,79,4.0,6.0,94,0.00,,,-99.99,,2013-08-24 02:42:00,
2013-08-23 22:52:00,67.0,65.0,-100.00,ENE,73,4.0,6.0,94,0.00,,,-99.99,,2013-08-24 02:52:00,
2013-08-23 23:12:00,67.0,65.0,-100.00,East,79,5.0,9.0,92,0.00,,,-99.99,,2013-08-24 03:12:00,
2013-08-23 23:22:00,67.0,65.0,-100.00,East,79,5.0,9.0,92,0.00,,,-99.99,,2013-08-24 03:22:00,
2013-08-23 23:44:00,68.0,65.0,-100.00,East,79,5.0,8.0,91,0.00,,,-99.99,,2013-08-24 03:44:00,
2013-08-23 23:55:00,68.0,65.0,-100.00,East,88,6.0,9.0,92,0.00,,,-99.99,,2013-08-24 03:55:00,